Location: Newark
(56.0692°N, 115.8617°E)
Time: 21:46:01
(UTC+00:00)

Transit 2A Rocket - Visible Passes

Search period start: 25 May 2020 00:00
Search period end: 04 June 2020 00:00
Orbit: 585 x 917 km, 66.7° (Epoch: 22 May)

Date Brightness Start Highest point End Pass type
(mag) Time Alt. Az. Time Alt. Az. Time Alt. Az.
25 May 6.9 14:45:12 10° SE 14:47:34 14° ESE 14:50:10 10° ENE visible
25 May 5.2 16:25:04 17° SSW 16:28:59 60° SE 16:34:33 10° NE visible
25 May 6.1 18:06:43 10° WSW 18:11:52 47° NNW 18:17:28 10° NE visible
26 May 5.6 15:43:05 17° S 15:46:35 41° ESE 15:51:49 10° NE visible
26 May 5.6 17:23:51 10° WSW 17:29:04 60° NW 17:34:50 10° NE visible
27 May 6.1 15:01:01 15° SSE 15:04:17 28° ESE 15:08:57 10° ENE visible
27 May 5.2 16:41:09 10° SW 16:46:24 80° NW 16:52:11 10° NE visible
27 May 6.7 18:24:49 10° W 18:29:49 35° NNW 18:35:12 10° NE visible
28 May 6.6 14:18:51 11° SSE 14:22:07 18° ESE 14:25:49 10° ENE visible
28 May 5.1 15:58:41 10° SW 16:03:48 75° SE 16:09:32 10° NE visible
28 May 6.4 17:41:48 10° W 17:46:55 41° NNW 17:52:28 10° NE visible
29 May 6.9 13:38:16 10° ESE 13:40:03 12° E 13:41:53 10° E visible
29 May 5.3 15:16:24 10° SSW 15:21:20 53° ESE 15:26:51 10° NE visible
29 May 6.0 16:58:52 10° WSW 17:04:05 51° NNW 17:09:48 10° NE visible
30 May 5.7 14:34:17 10° S 14:38:58 36° ESE 14:44:05 10° NE visible
30 May 5.5 16:16:04 10° WSW 16:21:20 66° NW 16:27:09 10° NE visible
30 May 7.0 17:59:58 10° WNW 18:04:57 32° NNW 18:10:16 10° NE visible
31 May 6.2 13:52:36 10° SSE 13:56:43 24° ESE 14:01:09 10° ENE visible
31 May 5.1 15:33:25 10° SW 15:38:41 88° NW 15:44:30 10° NE visible
31 May 6.7 17:16:56 10° W 17:22:00 37° NNW 17:27:29 10° NE visible
01 Jun 5.1 14:50:57 10° SSW 14:56:07 67° SE 15:01:51 10° NE visible
01 Jun 6.4 16:33:56 10° W 16:39:07 44° NNW 16:44:46 10° NE visible
01 Jun 7.3 18:18:10 10° WNW 18:23:06 29° N 18:28:19 10° ENE visible
02 Jun 5.4 14:08:44 10° SSW 14:13:41 46° ESE 14:19:08 10° NE visible
02 Jun 5.9 15:51:02 10° WSW 15:56:19 56° NW 16:02:06 10° NE visible
02 Jun 7.2 17:35:08 10° WNW 17:40:05 31° N 17:45:22 10° NE visible
03 Jun 5.4 15:08:16 10° SW 15:13:36 73° NW 15:19:28 10° NE visible
03 Jun 7.0 16:52:05 10° W 16:57:07 34° NNW 17:02:32 10° NE visible
03 Jun 7.4 18:36:12 10° NW 18:41:16 30° N 18:46:35 10° ENE visible
